Regional Weather Roundup
Issued by NWS San Diego, CA

Home | Current Version | Previous Version | Text Only | Print | Product List | Glossary On
Versions: 1 2 3 4 5 6 7 8 9 10 11 12 13 14 15 16 17 18 19 20 21 22 23 24 25 26 27 28 29 30 31 32 33 34 35 36 37 38 39 40 41 42 43 44 45 46 47 48 49 50
000
ASUS46 KSGX 172011
RWRSGX

SAN DIEGO HOURLY WEATHER ROUNDUP
NATIONAL WEATHER SERVICE SAN DIEGO CA
1200 PM PST FRI NOV 17 2017

NOTE: "FAIR" INDICATES FEW OR NO CLOUDS BELOW 12,000 FEET WITH NO
SIGNIFICANT WEATHER AND/OR OBSTRUCTIONS TO VISIBILITY.

CAZ042-043-060-061-PZZ750-775-172100-

GREATER SAN DIEGO AREA

CITY           SKY/WX    TMP DP  RH WIND       PRES   REMARKS
SAN DIEGO AP   CLOUDY    70  57  63 W7        30.06F
NATIONAL CITY    N/A     71  59  64 CALM      30.07F
CHULA VISTA      N/A     73  59  59 NW3       29.98F
IMPERIAL BEACH CLOUDY    70  56  61 NW8       30.05F
BROWN FIELD    CLOUDY    73  52  47 VRB6      30.06F
MIRAMAR MCAS   CLOUDY    75  54  47 NW5       30.05F
MONTGOMERY FLD CLOUDY    76  50  40 W6        30.05F
GILLESPIE FLD  SUNNY     73  46  38 CALM      30.05

$$

NORTH SAN DIEGO COUNTY

CITY           SKY/WX    TMP DP  RH WIND       PRES   REMARKS
CAMP PENDLETON CLOUDY    69  56  62 SW7       30.04F
OCEANSIDE AP   CLOUDY    69  56  62 W10       30.04F
OCEANSIDE HBR    N/A     65  60  83 W3        30.07F
VISTA            N/A     70  54  56 CALM      30.02F
CARLSBAD       CLOUDY    71  52  50 CALM      30.04F
DEL MAR          N/A     68  61  77 CALM      30.06F
LA JOLLA SCRIP   N/A     65  60  82 W3        30.04F
FALLBROOK        N/A     71  54  55 CALM      30.05F
ESCONDIDO        N/A     71  53  51 NW5       30.05F
SAN MARCOS       N/A     71  54  55 CALM      30.06F
POWAY            N/A     72  52  49 CALM      30.06F

$$

EAST SAN DIEGO COUNTY

CITY           SKY/WX    TMP DP  RH WIND       PRES   REMARKS
RAMONA         CLOUDY    79  32  18 W8        30.07F
SANTEE LAKES     N/A     73  51  45 W3        30.03F
LA MESA          N/A     71  50  47 CALM      29.98F
JAMUL            N/A     71  51  49 CALM      30.05F
DESCANSO N       N/A     61  47  59 W5        29.99F
MT. LAGUNA OBS   N/A     51  46  83 SW21      29.97F
CAMPO            N/A     68  48  48 SW14      30.05F

$$

ORANGE COUNTY AND THE LOS ANGELES BASIN

CITY           SKY/WX    TMP DP  RH WIND       PRES   REMARKS
JOHN WAYNE AP  PTSUNNY   72  57  59 W6        30.05F
LAGUNA BEACH     N/A     68  63  85 CALM      30.00F
LAKE FOREST FR   N/A     70  52  53 W3        29.94F
HUNTINGTON BCH   N/A     69  64  84 W1        30.06F
LOS ALAMITOS   PTSUNNY   74  59  60 W6        30.04F
FULLERTON      MOSUNNY   73  60  63 CALM      30.04F
LONG BEACH     MOSUNNY   71  60  68 W7        30.05F
L.A. AP        PTSUNNY   69  61  75 SW12      30.06F
L.A. DOWNTOWN  SUNNY     72  58  61 CALM      30.04F

$$

THE INLAND EMPIRE

CITY           SKY/WX    TMP DP  RH WIND       PRES   REMARKS
CORONA         MOSUNNY   71  50  47 VRB6      30.06F
CHINO          PTSUNNY   72  51  47 S7        30.06F
ONTARIO        PTSUNNY   70  48  45 VRB7      30.05F
SAN BERNARDINO PTSUNNY   72  45  37 S3        30.06F
RIVERSIDE AP   PTSUNNY   69  49  48 CALM      30.06F
MORENO VALLEY    N/A     69  55  61 SW5       28.19F
MARCH ARB      MOSUNNY   66  49  54 CALM      30.07F
HORSETHIEF CYN   N/A     69  48  46 CALM      30.04F
PERRIS           N/A     68  55  63 SW1         N/A
HEMET EAST       N/A     64  49  57 CALM      30.10F
FRENCH VALLEY  FAIR      66  50  55 CALM      30.07F
TEMECULA         N/A     68  53  58 CALM      30.11F

$$

SAN BERNARDINO AND RIVERSIDE COUNTY MOUNTAINS

CITY           SKY/WX    TMP DP  RH WIND       PRES   REMARKS
BIG BEAR AP    SUNNY     54  36  50 W15G23    30.15F
ANGELUS OAKS     N/A     56  43  61 CALM      29.94F

$$

SOUTHERN DESERT INCLUDING THE COACHELLA VALLEY

CITY           SKY/WX    TMP DP  RH WIND       PRES   REMARKS
PALM SPRINGS   PTSUNNY   78  48  34 CALM      29.96F
THOUSAND PALMS   N/A     78  51  38 W7        29.92F
PALM DESERT      N/A     80  52  38 CALM        N/A
THERMAL        PTSUNNY   80  50  34 N6        29.92F
BLYTHE         CLOUDY    79  45  29 SW10      29.94S
IMPERIAL AP    CLOUDY    82  48  30 N9        29.94F
EL CENTRO NAS  CLOUDY    82  46  28 NW13      29.96S
YUMA AZ        PTSUNNY   82  46  28 W8        29.94F
MEXICALI       CLOUDY    82  37  20 NW13      29.95

$$

UPPER DESERT

CITY           SKY/WX    TMP DP  RH WIND       PRES   REMARKS
VICTORVILLE AP SUNNY     68  43  40 W18G25    30.07S
HESPERIA         N/A     70  46  42 W7        30.10F
PALMDALE       MOSUNNY   67  47  48 W14G35    30.08F
LANCASTER      SUNNY     67  49  52 W28G33    30.08F
EDWARDS AFB    PTSUNNY   67  45  46 W20       30.03F
DAGGETT        SUNNY     74  46  36 W39G48    29.95F
29 PALMS N     PTSUNNY   75  41  29 NW12G18   30.06F
NEEDLES        PTSUNNY   81  38  21 S9        29.93F

$$

REGIONAL REPORTS

CITY           SKY/WX    TMP DP  RH WIND       PRES   REMARKS
SANTA BARBARA  SUNNY     71  59  65 W15       30.04F
SANDBERG       MOSUNNY   56  47  71 N21G31    30.15F
LAS VEGAS NV   PTSUNNY   75  41  29 SW23G37   29.85S
PHOENIX AZ     PTSUNNY   77  32  19 N3        29.96F
TIJUANA        CLOUDY    72  46  40 NW10      30.09S
ENSENADA NW      N/A     75  32  20 CALM      29.96F

$$

OFFSHORE ISLANDS

CITY           SKY/WX    TMP DP  RH WIND       PRES   REMARKS
CATALINA ARPT  CLOUDY    65  61  87 W7        30.09F
SAN CLEMENTE I PTSUNNY   67  62  84 NW6       30.08F
SAN NICOLAS IS PTSUNNY   66  32  28 W16       30.08F

$$

MARINE AND OFFSHORE BUOY REPORTS

STATION/POSITION SKY/WX   TEMP    WIND        PRES    VSBY  SWELL
                          AIR SEA DIR/SP/G                  HT/PER/DIR
                          (F)     (DEG/KT/KT) (MB)    (MI)  (FT/S/D)
TANNER BANKS               64 63              1018.6F
S CLEMENTE BASIN           65 66  320/  8/ 10 1018.5F         3/280/11
SAN NICOLAS IS.               63                N/A           5/310/11
SO. S. ROSA ISLA           60 60  320/ 16/ 19 1018.6F         5/290/12
W. S. BARBARA CH           59 60  310/ 17/ 21 1018.8
M. S. BARBARA CH           62 60  260/ 14/ 17 1018.4
S. MONICA BASIN               66  290/  4/  6 1017.9F         2/230/11
S PEDRO CHANNEL               65                N/A           2/190/13
CMP PENDLETON NS              63                N/A           2/210/13
OCEANSIDE OFFSHR              65                N/A           2/190/14
TORREY PINES OTR              66                N/A           2/210/13
SAN DIEGO BAY                 68              1018.9
POINT LOMA SOUTH              66                N/A           3/190/14

$$




USA.gov is the U.S. government's official web portal to all federal, state and local government web resources and services.